MDT,Max TemperatureF,Mean TemperatureF,Min TemperatureF,Max Dew PointF,MeanDew PointF,Min DewpointF,Max Humidity, Mean Humidity, Min Humidity, Max Sea Level PressureIn, Mean Sea Level PressureIn, Min Sea Level PressureIn, Max VisibilityMiles, Mean VisibilityMiles, Min VisibilityMiles, Max Wind SpeedMPH, Mean Wind SpeedMPH, Max Gust SpeedMPH,PrecipitationIn, CloudCover, Events, WindDirDegrees
2013-3-1,51,36,21,30,24,17,81,60,39,30.34,30.25,30.16,10,10,10,14,7,16,0.00,4,,179
2013-3-2,64,49,34,32,29,28,82,55,27,30.15,30.04,29.83,10,10,10,17,7,23,0.00,1,,283
2013-3-3,57,43,28,40,32,21,96,70,43,29.79,29.67,29.52,10,7,1,39,12,48,0.17,7,Rain-Snow,279
2013-3-4,28,18,8,25,16,6,84,78,71,30.50,30.12,29.71,10,4,0,35,24,46,T,7,Snow,317
2013-3-5,24,13,1,16,9,-2,88,78,68,30.52,30.41,30.24,10,10,9,13,6,15,0.00,1,,125
2013-3-6,34,24,14,25,18,11,88,76,63,30.24,30.02,29.85,10,10,10,18,10,23,0.00,1,,80
2013-3-7,46,33,20,32,26,18,92,77,62,30.15,30.03,29.87,10,10,10,16,6,20,0.00,1,,294
2013-3-8,44,35,26,33,29,24,92,81,70,30.14,30.02,29.91,10,9,6,18,11,21,T,6,,39
2013-3-9,44,33,22,30,25,19,92,66,40,30.31,30.06,29.89,10,9,6,25,12,31,0.00,4,,322
2013-3-10,50,35,19,26,21,15,92,63,34,30.33,30.17,29.94,10,8,2,10,5,16,0.00,1,,193
2013-3-11,44,33,22,26,20,15,75,54,33,30.34,30.07,29.92,10,10,10,35,17,41,0.00,3,,316
2013-3-12,41,28,15,17,14,11,84,59,33,30.43,30.31,30.13,10,10,10,16,7,20,0.00,2,,131
2013-3-13,70,51,32,34,26,17,65,44,23,30.10,30.04,29.93,10,10,10,26,11,31,0.00,1,,223
2013-3-14,70,53,35,39,32,29,82,52,22,30.12,30.05,29.93,10,10,10,21,9,25,0.00,2,,253
2013-3-15,65,46,27,34,29,22,92,60,27,30.16,29.96,29.80,10,9,4,41,14,49,0.00,2,,351
2013-3-16,31,27,23,24,21,18,88,79,69,30.16,30.06,29.86,10,7,0,20,12,23,T,7,Fog-Snow,43
2013-3-17,36,25,13,33,23,6,92,80,67,30.02,29.63,29.40,10,7,0,41,18,52,0.05,7,Fog-Snow,315
2013-3-18,37,22,6,23,11,0,76,62,47,30.14,30.03,29.93,10,10,10,26,8,32,0.00,2,,256
2013-3-19,35,27,18,21,10,5,81,55,29,30.42,30.31,30.01,10,10,10,20,8,23,0.00,2,,341
2013-3-20,52,35,18,18,12,4,68,41,14,30.37,29.99,29.70,10,10,8,25,14,33,0.00,2,,135
2013-3-21,35,30,25,27,21,11,92,64,35,29.94,29.77,29.65,10,5,0,7,6,8,0.14,7,Fog-Snow,140
2013-3-22,31,24,17,27,21,15,92,80,68,30.22,29.96,29.80,10,6,0,25,10,30,0.01,8,Fog-Snow,328
2013-3-23,26,21,15,17,13,11,84,70,55,30.38,30.29,30.14,10,9,2,22,11,29,T,7,Snow,318
2013-3-24,26,19,12,14,11,8,84,71,57,30.46,30.37,30.25,10,7,2,16,8,20,T,7,Snow,331
2013-3-25,39,22,5,20,12,3,88,66,44,30.46,30.34,30.17,10,10,10,15,9,21,0.00,0,,143
2013-3-26,51,36,20,24,18,14,77,52,27,30.15,30.07,30.01,10,10,10,16,8,21,0.00,0,,119
2013-3-27,60,40,20,28,23,17,91,56,21,30.12,30.07,30.02,10,10,10,16,7,20,0.00,1,,43
2013-3-28,63,46,28,32,28,25,85,54,23,30.12,30.07,30.04,10,10,5,15,7,18,0.00,1,,42
2013-3-29,67,51,34,34,31,25,82,52,22,30.06,30.02,29.98,10,10,7,25,11,32,0.00,4,,334
2013-3-30,63,48,33,34,29,23,89,58,27,30.16,30.11,30.06,10,10,7,29,10,36,T,2,Rain,310
2013-3-31,48,36,24,28,24,18,81,57,33,30.27,30.13,29.99,10,10,10,22,10,26,0.00,4,,55